262  
ASUS43 KFSD 230510  
RWRFSD  
 
WEATHER ROUNDUP FOR SE SOUTH DAKOTA/SW MINNESOTA/NW IOWA  
NATIONAL WEATHER SERVICE SIOUX FALLS SD  
1200 AM CDT SAT JUN 23 2018  
 
NOTE: "FAIR" INDICATES FEW OR NO CLOUDS BELOW 12,000 FEET WITH NO  
SIGNIFICANT WEATHER AND OR S TO VISIBILITY
.  
 
 
SDZ038>040-050-052>070-230600-  
SOUTHEAST SOUTH DAKOTA  
 
CITY SKY/WX TMP DP RH WIND PRES REMARKS
 
CHAMBERLAIN CLOUDY 67 63 86 SE10 29.78F  
HURON CLEAR 67 59 75 S8 29.79R  
MADISON FAIR 64 64 100 S3 29.84R  
MITCHELL CLEAR 67 59 75 S6 29.81R  
SIOUX FALLS PTCLDY 64 60 87 S6 29.83R  
WINNER FAIR 67 56 67 S12 29.78F  

 
 
MNZ071-072-080-081-089-090-097-098-230600-  
SOUTHWEST MINNESOTA  
 
CITY SKY/WX TMP DP RH WIND PRES REMARKS
 
JACKSON CLOUDY 61 59 94 CALM 29.84R  
LUVERNE PTCLDY 61 57 88 CALM 29.85R  
MARSHALL NOT AVBL  
MONTEVIDEO CLOUDY 66 64 94 S3 29.80R  
PIPESTONE CLEAR 63 61 94 S5 29.85R  
REDWOOD FALLS PTCLDY 65 62 90 S3 29.80R  
TRACY PTCLDY 65 61 85 SW5 29.82R  
WINDOM PTCLDY 64 63 94 CALM 29.82R  

 
 
IAZ001>003-012>014-020>022-031-032-NEZ013-014-SDZ071-230600-  
NORTHWEST IOWA  
 
CITY SKY/WX TMP DP RH WIND PRES REMARKS
 
CHEROKEE CLOUDY 60 60 100 CALM 29.84S  
DENISON CLOUDY 61 61 100 CALM 29.85S  
ESTHERVILLE PTCLDY 65 63 93 W6 29.82R  
ORANGE CITY CLOUDY 66 63 88 CALM 29.84R  
SHELDON CLOUDY 63 63 100 CALM 29.83R  
SIOUX CITY CLOUDY 63 60 90 CALM 29.83R  
SPENCER CLOUDY 67 64 90 CALM 29.83R  
STORM LAKE CLOUDY 61 59 94 SW5 29.84S  

 
 
ABBREVIATIONS USED IN REMARKS  
TC - TEMPERATURE IN CELSIUS  
WCI - WIND CHILL INDEX  
HX - HEAT INDEX  
VSB - VISIBILITY  
 
 
 
CLICK HERE TO GO TO PREVIOUS BULLETINS.

The Nexlab SD Page
The Nexlab IA Page
The Nexlab MN Page
The Nexlab NE Page Main Text Page